Time,TemperatureF,DewpointF,PressureIn,WindDirection,WindDirectionDegrees,WindSpeedMPH,WindSpeedGustMPH,Humidity,HourlyPrecipIn,Conditions,Clouds,dailyrainin,SolarRadiationWatts/m^2,SoftwareType,DateUTC
2013-11-27 00:12:00,44.8,44.0,30.09,ESE,116,3.0,11.0,95,0.03,,,0.01,0,weatherlink.com 1.10,2013-11-27 05:12:00,
2013-11-27 00:27:00,45.0,44.0,30.08,ESE,121,3.0,9.0,95,0.05,,,0.03,0,weatherlink.com 1.10,2013-11-27 05:27:00,
2013-11-27 00:42:00,45.3,44.0,30.07,SE,126,3.0,9.0,95,0.06,,,0.05,0,weatherlink.com 1.10,2013-11-27 05:42:00,
2013-11-27 00:57:00,45.8,45.0,30.06,SE,125,2.0,12.0,95,0.07,,,0.07,0,weatherlink.com 1.10,2013-11-27 05:57:00,
2013-11-27 01:13:00,46.1,45.0,30.04,SE,126,5.0,11.0,96,0.09,,,0.10,0,weatherlink.com 1.10,2013-11-27 06:13:00,
2013-11-27 01:28:00,46.6,46.0,30.02,East,96,3.0,11.0,96,0.10,,,0.13,0,weatherlink.com 1.10,2013-11-27 06:28:00,
2013-11-27 01:43:00,47.0,46.0,30.00,SE,144,5.0,13.0,96,0.13,,,0.18,0,weatherlink.com 1.10,2013-11-27 06:43:00,
2013-11-27 01:58:00,47.4,46.0,29.98,SE,146,6.0,13.0,96,0.13,,,0.20,0,weatherlink.com 1.10,2013-11-27 06:58:00,
2013-11-27 02:13:00,47.9,47.0,29.98,SE,129,10.0,14.0,96,0.11,,,0.21,0,weatherlink.com 1.10,2013-11-27 07:13:00,
2013-11-27 02:28:00,48.2,47.0,29.95,ESE,117,7.0,13.0,96,0.07,,,0.21,0,weatherlink.com 1.10,2013-11-27 07:28:00,
2013-11-27 02:43:00,48.5,48.0,29.93,SE,128,11.0,12.0,96,0.04,,,0.22,0,weatherlink.com 1.10,2013-11-27 07:43:00,
2013-11-27 02:58:00,48.8,48.0,29.91,ESE,113,3.0,13.0,96,0.03,,,0.23,0,weatherlink.com 1.10,2013-11-27 07:58:00,
2013-11-27 03:13:00,49.1,48.0,29.88,ESE,107,12.0,14.0,96,0.04,,,0.25,0,weatherlink.com 1.10,2013-11-27 08:13:00,
2013-11-27 03:28:00,49.7,49.0,29.86,SE,134,5.0,13.0,96,0.05,,,0.26,0,weatherlink.com 1.10,2013-11-27 08:28:00,
2013-11-27 03:43:00,50.0,49.0,29.85,East,101,9.0,15.0,96,0.05,,,0.27,0,weatherlink.com 1.10,2013-11-27 08:43:00,
2013-11-27 03:58:00,50.2,49.0,29.83,East,99,8.0,13.0,96,0.06,,,0.29,0,weatherlink.com 1.10,2013-11-27 08:58:00,
2013-11-27 04:13:00,50.5,49.0,29.80,ESE,123,11.0,13.0,96,0.06,,,0.31,0,weatherlink.com 1.10,2013-11-27 09:13:00,
2013-11-27 04:28:00,51.2,50.0,29.79,East,96,8.0,17.0,96,0.06,,,0.32,0,weatherlink.com 1.10,2013-11-27 09:28:00,
2013-11-27 04:43:00,51.5,50.0,29.75,ESE,115,5.0,15.0,96,0.07,,,0.34,0,weatherlink.com 1.10,2013-11-27 09:43:00,
2013-11-27 04:58:00,51.9,51.0,29.73,SSE,153,9.0,18.0,95,0.06,,,0.35,0,weatherlink.com 1.10,2013-11-27 09:58:00,
2013-11-27 05:13:00,51.7,50.0,29.72,ESE,115,11.0,15.0,95,0.05,,,0.36,0,weatherlink.com 1.10,2013-11-27 10:13:00,
2013-11-27 05:28:00,51.9,51.0,29.70,ESE,123,9.0,17.0,96,0.10,,,0.42,0,weatherlink.com 1.10,2013-11-27 10:28:00,
2013-11-27 05:44:00,51.9,51.0,29.67,ESE,113,14.0,16.0,96,0.11,,,0.45,0,weatherlink.com 1.10,2013-11-27 10:44:00,
2013-11-27 05:59:00,52.2,51.0,29.64,East,93,7.0,15.0,96,0.14,,,0.49,0,weatherlink.com 1.10,2013-11-27 10:59:00,
2013-11-27 06:14:00,52.7,52.0,29.61,SE,134,5.0,15.0,96,0.15,,,0.52,0,weatherlink.com 1.10,2013-11-27 11:14:00,
2013-11-27 06:29:00,54.1,53.0,29.59,SE,144,5.0,17.0,97,0.13,,,0.55,0,weatherlink.com 1.10,2013-11-27 11:29:00,
2013-11-27 06:44:00,55.3,55.0,29.57,ESE,105,8.0,16.0,97,0.12,,,0.58,0,weatherlink.com 1.10,2013-11-27 11:44:00,
2013-11-27 06:59:00,57.3,56.0,29.55,SSE,164,7.0,22.0,96,0.11,,,0.60,0,weatherlink.com 1.10,2013-11-27 11:59:00,
2013-11-27 07:14:00,58.0,57.0,29.54,SSE,165,4.0,23.0,95,0.11,,,0.63,0,weatherlink.com 1.10,2013-11-27 12:14:00,
2013-11-27 07:29:00,59.2,58.0,29.53,SSE,154,9.0,22.0,94,0.10,,,0.65,7,weatherlink.com 1.10,2013-11-27 12:29:00,
2013-11-27 07:44:00,60.6,59.0,29.52,SE,142,16.0,21.0,93,0.09,,,0.67,7,weatherlink.com 1.10,2013-11-27 12:44:00,
2013-11-27 07:59:00,61.4,59.0,29.50,SSW,206,9.0,27.0,92,0.10,,,0.70,5,weatherlink.com 1.10,2013-11-27 12:59:00,
2013-11-27 08:14:00,61.5,59.0,29.50,South,181,12.0,29.0,92,0.12,,,0.75,12,weatherlink.com 1.10,2013-11-27 13:14:00,
2013-11-27 08:29:00,61.4,59.0,29.48,SSE,165,16.0,31.0,92,0.15,,,0.80,16,weatherlink.com 1.10,2013-11-27 13:29:00,
2013-11-27 08:44:00,61.3,59.0,29.48,SSW,192,7.0,23.0,93,0.19,,,0.87,16,weatherlink.com 1.10,2013-11-27 13:44:00,
2013-11-27 08:59:00,61.1,59.0,29.46,SSE,161,10.0,22.0,94,0.25,,,0.95,35,weatherlink.com 1.10,2013-11-27 13:59:00,
2013-11-27 09:14:00,61.3,60.0,29.46,South,181,18.0,20.0,94,0.22,,,0.97,42,weatherlink.com 1.10,2013-11-27 14:14:00,
2013-11-27 09:29:00,62.0,60.0,29.45,SSE,164,13.0,21.0,94,0.19,,,0.99,35,weatherlink.com 1.10,2013-11-27 14:29:00,
2013-11-27 09:44:00,62.7,61.0,29.44,South,191,7.0,26.0,93,0.14,,,1.01,44,weatherlink.com 1.10,2013-11-27 14:44:00,
2013-11-27 09:59:00,63.2,61.0,29.43,SSE,168,5.0,26.0,93,0.07,,,1.02,42,weatherlink.com 1.10,2013-11-27 14:59:00,
2013-11-27 10:14:00,63.4,61.0,29.43,South,171,15.0,30.0,93,0.07,,,1.04,88,weatherlink.com 1.10,2013-11-27 15:14:00,
2013-11-27 10:29:00,63.5,61.0,29.41,South,173,6.0,20.0,92,0.05,,,1.04,93,weatherlink.com 1.10,2013-11-27 15:29:00,
2013-11-27 10:45:00,63.3,61.0,29.40,West,270,6.0,18.0,93,0.03,,,1.04,109,weatherlink.com 1.10,2013-11-27 15:45:00,
2013-11-27 11:00:00,63.7,61.0,29.39,South,181,9.0,17.0,92,0.02,,,1.04,53,weatherlink.com 1.10,2013-11-27 16:00:00,
2013-11-27 11:15:00,63.5,61.0,29.38,South,175,6.0,17.0,92,0.01,,,1.05,58,weatherlink.com 1.10,2013-11-27 16:15:00,
2013-11-27 11:30:00,63.3,61.0,29.38,SSE,160,5.0,12.0,93,0.02,,,1.06,33,weatherlink.com 1.10,2013-11-27 16:30:00,
2013-11-27 11:45:00,63.1,61.0,29.38,SSW,202,7.0,11.0,94,0.06,,,1.10,30,weatherlink.com 1.10,2013-11-27 16:45:00,
2013-11-27 12:00:00,62.8,61.0,29.38,SW,228,10.0,10.0,95,0.11,,,1.15,14,weatherlink.com 1.10,2013-11-27 17:00:00,
2013-11-27 12:15:00,62.6,61.0,29.37,SSE,161,1.0,9.0,95,0.18,,,1.23,25,weatherlink.com 1.10,2013-11-27 17:15:00,
2013-11-27 12:30:00,62.4,61.0,29.36,SSW,205,0.0,8.0,96,0.26,,,1.32,16,weatherlink.com 1.10,2013-11-27 17:30:00,
2013-11-27 12:45:00,62.3,61.0,29.35,SSE,163,0.0,5.0,96,0.30,,,1.40,54,weatherlink.com 1.10,2013-11-27 17:45:00,
2013-11-27 13:00:00,62.2,61.0,29.35,SSE,154,8.0,8.0,96,0.28,,,1.43,77,weatherlink.com 1.10,2013-11-27 18:00:00,
2013-11-27 13:15:00,62.3,61.0,29.34,South,188,4.0,7.0,96,0.21,,,1.44,40,weatherlink.com 1.10,2013-11-27 18:15:00,
2013-11-27 13:30:00,62.3,61.0,29.32,SW,215,2.0,7.0,96,0.12,,,1.45,32,weatherlink.com 1.10,2013-11-27 18:30:00,
2013-11-27 13:45:00,62.2,61.0,29.30,South,185,1.0,7.0,96,0.06,,,1.46,44,weatherlink.com 1.10,2013-11-27 18:45:00,
2013-11-27 14:00:00,62.1,61.0,29.29,South,184,4.0,8.0,96,0.03,,,1.47,35,weatherlink.com 1.10,2013-11-27 19:00:00,
2013-11-27 14:15:00,62.2,61.0,29.28,SSE,159,5.0,8.0,96,0.03,,,1.47,42,weatherlink.com 1.10,2013-11-27 19:15:00,
2013-11-27 14:30:00,62.2,61.0,29.27,SSE,165,1.0,6.0,95,0.03,,,1.48,40,weatherlink.com 1.10,2013-11-27 19:30:00,
2013-11-27 14:45:00,62.2,61.0,29.28,SSW,194,1.0,7.0,95,0.02,,,1.48,19,weatherlink.com 1.10,2013-11-27 19:45:00,
2013-11-27 15:00:00,62.1,61.0,29.30,WSW,243,0.0,4.0,95,0.01,,,1.48,16,weatherlink.com 1.10,2013-11-27 20:00:00,
2013-11-27 15:15:00,61.9,61.0,29.29,SSW,202,2.0,5.0,95,0.01,,,1.48,7,weatherlink.com 1.10,2013-11-27 20:15:00,
2013-11-27 15:30:00,61.8,60.0,29.29,NNW,329,8.0,15.0,95,0.02,,,1.50,0,weatherlink.com 1.10,2013-11-27 20:30:00,
2013-11-27 15:45:00,57.1,55.0,29.31,NNW,327,10.0,15.0,92,0.03,,,1.51,0,weatherlink.com 1.10,2013-11-27 20:45:00,
2013-11-27 16:00:00,55.8,54.0,29.31,NW,319,9.0,13.0,93,0.03,,,1.51,0,weatherlink.com 1.10,2013-11-27 21:00:00,
2013-11-27 16:30:00,53.7,52.0,29.31,WNW,292,6.0,10.0,94,0.01,,,1.51,0,weatherlink.com 1.10,2013-11-27 21:30:00,
2013-11-27 16:45:00,52.6,51.0,29.31,WNW,303,6.0,12.0,93,0.00,,,1.51,0,weatherlink.com 1.10,2013-11-27 21:45:00,
2013-11-27 17:00:00,52.2,50.0,29.30,WNW,297,4.0,12.0,91,0.00,,,1.51,0,weatherlink.com 1.10,2013-11-27 22:00:00,
2013-11-27 17:15:00,51.7,49.0,29.30,NW,325,4.0,9.0,90,0.00,,,1.51,0,weatherlink.com 1.10,2013-11-27 22:15:00,
2013-11-27 17:30:00,51.0,49.0,29.29,WNW,294,4.0,10.0,91,0.00,,,1.51,0,weatherlink.com 1.10,2013-11-27 22:30:00,
2013-11-27 17:45:00,50.3,48.0,29.31,WNW,294,8.0,16.0,90,0.01,,,1.52,0,weatherlink.com 1.10,2013-11-27 22:45:00,
2013-11-27 18:00:00,49.8,47.0,29.30,NW,306,4.0,11.0,90,0.02,,,1.53,0,weatherlink.com 1.10,2013-11-27 23:00:00,
2013-11-27 18:15:00,49.6,47.0,29.34,WNW,282,4.0,7.0,92,0.03,,,1.54,0,weatherlink.com 1.10,2013-11-27 23:15:00,
2013-11-27 18:30:00,49.4,48.0,29.32,West,273,3.0,7.0,93,0.03,,,1.55,0,weatherlink.com 1.10,2013-11-27 23:30:00,
2013-11-27 18:45:00,48.6,47.0,29.31,West,259,7.0,8.0,93,0.04,,,1.56,0,weatherlink.com 1.10,2013-11-27 23:45:00,
2013-11-27 19:00:00,48.1,47.0,29.30,West,271,6.0,8.0,94,0.03,,,1.56,0,weatherlink.com 1.10,2013-11-28 00:00:00,
2013-11-27 19:15:00,47.8,46.0,29.31,West,281,5.0,8.0,94,0.03,,,1.57,0,weatherlink.com 1.10,2013-11-28 00:15:00,
2013-11-27 19:30:00,47.0,45.0,29.30,NW,305,11.0,13.0,94,0.03,,,1.58,0,weatherlink.com 1.10,2013-11-28 00:30:00,
2013-11-27 19:45:00,46.2,44.0,29.33,WNW,288,8.0,18.0,92,0.03,,,1.59,0,weatherlink.com 1.10,2013-11-28 00:45:00,
2013-11-27 20:00:00,45.0,42.0,29.34,NNW,327,7.0,22.0,90,0.05,,,1.61,0,weatherlink.com 1.10,2013-11-28 01:00:00,
2013-11-27 20:15:00,44.3,41.0,29.36,WSW,248,6.0,22.0,89,0.04,,,1.61,0,weatherlink.com 1.10,2013-11-28 01:15:00,
2013-11-27 20:30:00,43.9,41.0,29.37,West,279,5.0,22.0,88,0.03,,,1.61,0,weatherlink.com 1.10,2013-11-28 01:30:00,
2013-11-27 20:45:00,43.3,40.0,29.39,WNW,301,14.0,25.0,88,0.02,,,1.61,0,weatherlink.com 1.10,2013-11-28 01:45:00,
2013-11-27 21:00:00,42.7,40.0,29.40,WNW,289,7.0,16.0,89,0.01,,,1.62,0,weatherlink.com 1.10,2013-11-28 02:00:00,
2013-11-27 21:15:00,42.4,39.0,29.40,NW,319,7.0,21.0,88,0.01,,,1.62,0,weatherlink.com 1.10,2013-11-28 02:15:00,
2013-11-27 21:30:00,42.3,39.0,29.39,NW,304,11.0,18.0,87,0.01,,,1.62,0,weatherlink.com 1.10,2013-11-28 02:30:00,
2013-11-27 21:45:00,42.1,38.0,29.39,WNW,283,19.0,19.0,86,0.01,,,1.62,0,weatherlink.com 1.10,2013-11-28 02:45:00,
2013-11-27 22:00:00,41.8,37.0,29.41,NW,311,11.0,18.0,83,0.00,,,1.62,0,weatherlink.com 1.10,2013-11-28 03:00:00,
2013-11-27 22:16:00,41.3,36.0,29.41,WNW,296,5.0,16.0,82,0.00,,,1.62,0,weatherlink.com 1.10,2013-11-28 03:16:00,
2013-11-27 22:31:00,41.0,36.0,29.43,NW,309,8.0,18.0,81,0.00,,,1.62,0,weatherlink.com 1.10,2013-11-28 03:31:00,
2013-11-27 22:46:00,40.6,36.0,29.44,WSW,250,2.0,16.0,84,0.00,,,1.62,0,weatherlink.com 1.10,2013-11-28 03:46:00,
2013-11-27 23:01:00,39.8,36.0,29.46,WSW,252,3.0,14.0,86,0.00,,,1.62,0,weatherlink.com 1.10,2013-11-28 04:01:00,
2013-11-27 23:16:00,39.5,35.0,29.47,WNW,292,13.0,15.0,85,0.00,,,1.62,0,weatherlink.com 1.10,2013-11-28 04:16:00,
2013-11-27 23:31:00,39.2,35.0,29.48,WNW,289,2.0,15.0,84,0.00,,,1.62,0,weatherlink.com 1.10,2013-11-28 04:31:00,
2013-11-27 23:46:00,38.9,35.0,29.50,WNW,288,10.0,16.0,84,0.00,,,1.62,0,weatherlink.com 1.10,2013-11-28 04:46:00,